Torna al catalogo

RIDU-SAT 1

AttivoScienzaSSO
NORAD 64532·PAYLOAD·🇮🇩 Indonesia
Questo nome del satellite non è ancora stato confermato da fonti ufficiali.

Lanciato Jun 23, 2025 da Vandenberg Space Force Base

Loading…

Prossimi Passaggi (prossime 24 ore)

TLE

AggiornatoSource: Space-Track

Epoca: Sep 14, 2026, 18:31 UTC

1 64532U 25135E   26257.77154971  .00009410  00000-0  34834-3 0  9998
2 64532  97.4817  14.1555 0003793 193.5135 166.6003 15.27882057 68593

Traccia RIDU-SAT 1 in tempo reale con AllMySat

Download on the App Store